Location: Falniów
(50.3639°N, 19.9642°E)
Time: 10:37:23
(UTC+00:00)

USA 32 - Pass Details

Date: 18 January 2026
Orbit: 774 x 780 km, 85.0° (Epoch: 14 February)

Event Time Altitude Azimuth Distance (km) Brightness Sun altitude
Rises 04:27:34 0° 184° (S) 3,253 7.3 -19.3°
Reaches altitude 10° 04:29:55 10° 185° (S) 2,330 6.6 -18.9°
Maximum altitude 04:35:09 90° 280° (W) 788 4.0 -18.1°
Drops below altitude 10° 04:40:26 10° 6° (N) 2,346 6.5 -17.2°
Sets 04:42:48 0° 7° (N) 3,278 7.2 -16.9°
